Torna al catalogo

STARLINK-31636

AttivoComunicazioniVLEO
NORAD 59747·PAYLOAD·🇺🇸 United States

Lanciato May 13, 2024 da Cape Canaveral Space Force Station

Loading…

Prossimi Passaggi (prossime 24 ore)

TLE

AggiornatoSource: CelesTrak SupGP

Epoca: Sep 15, 2026, 02:38 UTC

1 59747C 24090T   26258.11020833 -.00042091  00000+0 -15247-2 0  2584
2 59747  43.0001 193.5766 0001060 275.8851   7.9729 15.27595953    18

Traccia STARLINK-31636 in tempo reale con AllMySat

Download on the App Store